Ionia, MI

1:47 AM EST on November 13, 2019 (GMT -0500)
Ionia

Weather History for KY70 - September, 2019

Change the Weather History Date:

Saturday, September 21, 2019

  Actual Average (KGRR) Record (KGRR)
Temperature  
Mean Temperature 74 °F -  
Max Temperature 85 °F 66 °F 95 °F (2017)
Min Temperature 62 °F 48 °F 32 °F (1962)
Cooling Degree Days 8    
Growing Degree Days 24 (Base 50)    
Moisture  
Dew Point 65 °F    
Average Humidity 76    
Maximum Humidity 95    
Minimum Humidity 50    
Precipitation  
Precipitation 0.04 in - - ()
Sea Level Pressure  
Sea Level Pressure 30.10 in    
Wind  
Wind Speed 4 mph ()    
Max Wind Speed 17 mph    
Max Gust Speed 24 mph    
Visibility 9.7 miles    
Events Rain    
Averages and records for this station are not official NWS values.
T = Trace of Precipitation, MM = Missing Value Source: Averaged Metar Reports

Daily Weather History Graph

Daily Weather History Graph

Search for Another Location

Airport or City:

Astronomy

Sep. 21, 2019 Rise Set
Actual Time 7:26 AM EDT 7:39 PM EDT
Civil Twilight 6:57 AM EDT 8:08 PM EDT
Nautical Twilight 6:24 AM EDT 8:41 PM EDT
Astronomical Twilight 5:50 AM EDT 9:15 PM EDT
Moon No Moon Rise 2:41 PM EDT (9/21)
Length of Visible Light 13h 10m
Length of Day
12h 13m
Waning Gibbous, 55% of the Moon is Illuminated
Sep 21
Waning Gibbous
Sep 21
Last Quarter
Sep 28
New
Oct 5
First Quarter
Oct 13
Full

Hourly Weather History & Observations

Time (EDT) Temp. Heat Index Dew Point Humidity Pressure Visibility Wind Dir Wind Speed Gust Speed Precip Events Conditions
12:15 AM 66.0 °F - 63.9 °F 93% 30.14 in 10.0 mi Calm Calm - N/A   Scattered Clouds
12:35 AM 66.4 °F - 63.5 °F 90% 30.14 in 10.0 mi Calm Calm - N/A   Mostly Cloudy
12:55 AM 66.2 °F - 63.5 °F 91% 30.14 in 10.0 mi Calm Calm - N/A   Scattered Clouds
1:18 AM 65.8 °F - 64.0 °F 94% 30.13 in 10.0 mi SE 3.5 mph - N/A   Overcast
1:36 AM 66.7 °F - 63.7 °F 90% 30.13 in 10.0 mi SSE 3.5 mph - N/A   Overcast
1:55 AM 67.3 °F - 64.0 °F 89% 30.13 in 10.0 mi SSE 3.5 mph - N/A   Overcast
1:56 AM 67.3 °F - 64.0 °F 89% 30.13 in 10.0 mi SSE 3.5 mph - N/A   Overcast
2:15 AM 68.0 °F - 63.9 °F 87% 30.13 in 10.0 mi South 3.5 mph - N/A   Mostly Cloudy
2:39 AM 66.9 °F - 64.2 °F 91% 30.13 in 10.0 mi Calm Calm - N/A   Scattered Clouds
2:57 AM 66.2 °F - 63.0 °F 89% 30.13 in 10.0 mi Calm Calm - N/A   Clear
3:15 AM 64.9 °F - 63.0 °F 93% 30.13 in 10.0 mi Calm Calm - N/A   Clear
3:35 AM 64.8 °F - 63.0 °F 94% 30.12 in 10.0 mi Calm Calm - N/A   Clear
3:55 AM 63.5 °F - 61.3 °F 93% 30.12 in 10.0 mi ESE 3.5 mph - N/A   Clear
4:00 AM 63.5 °F - 61.7 °F 94% 30.12 in 10.0 mi ESE 3.5 mph - N/A   Clear
4:18 AM 64.6 °F - 62.4 °F 93% 30.12 in 10.0 mi SE 3.5 mph - N/A   Clear
4:36 AM 63.9 °F - 61.9 °F 93% 30.12 in 10.0 mi Calm Calm - N/A   Clear
4:55 AM 63.7 °F - 61.7 °F 93% 30.13 in 7.0 mi Calm Calm - N/A   Clear
4:56 AM 63.7 °F - 61.9 °F 94% 30.13 in 7.0 mi Calm Calm - N/A   Clear
5:39 AM 64.4 °F - 62.6 °F 94% 30.14 in 10.0 mi Calm Calm - N/A   Mostly Cloudy
5:57 AM 64.0 °F - 62.1 °F 93% 30.14 in 10.0 mi Calm Calm - N/A   Scattered Clouds
6:15 AM 62.8 °F - 61.2 °F 94% 30.14 in 10.0 mi South 3.5 mph - N/A   Clear
6:35 AM 63.5 °F - 61.7 °F 94% 30.14 in 10.0 mi South 3.5 mph - N/A   Clear
6:55 AM 62.8 °F - 61.3 °F 95% 30.14 in 7.0 mi South 3.5 mph - N/A   Clear
7:00 AM 63.1 °F - 61.7 °F 95% 30.14 in 10.0 mi South 4.6 mph - N/A   Clear
7:18 AM 63.0 °F - 61.2 °F 94% 30.14 in 7.0 mi Calm Calm - N/A   Clear
7:36 AM 63.3 °F - 61.9 °F 95% 30.14 in 7.0 mi Calm Calm - N/A   Clear
7:55 AM 63.1 °F - 61.7 °F 95% 30.15 in 5.0 mi SSE 3.5 mph - N/A   Clear
8:15 AM 64.0 °F - 62.4 °F 94% 30.15 in 7.0 mi SSE 3.5 mph - N/A   Scattered Clouds
8:39 AM 66.4 °F - 64.8 °F 95% 30.14 in 7.0 mi SE 3.5 mph - N/A   Clear
8:56 AM 68.9 °F - 65.5 °F 89% 30.15 in 10.0 mi Calm Calm - N/A   Clear
9:15 AM 70.9 °F - 66.2 °F 85% 30.15 in 10.0 mi South 4.6 mph - N/A   Clear
9:16 AM 71.1 °F - 66.2 °F 85% 30.15 in 10.0 mi South 4.6 mph - N/A   Clear
9:35 AM 73.4 °F - 67.1 °F 81% 30.15 in 10.0 mi SSW 4.6 mph - N/A   Clear
9:36 AM 73.4 °F - 66.9 °F 80% 30.15 in 10.0 mi SSW 4.6 mph - N/A   Clear
9:55 AM 74.7 °F - 67.5 °F 78% 30.14 in 10.0 mi SSW 4.6 mph - N/A   Clear
10:18 AM 76.3 °F - 67.3 °F 74% 30.14 in 10.0 mi SSW 4.6 mph - N/A   Scattered Clouds
10:36 AM 77.7 °F - 66.9 °F 69% 30.14 in 10.0 mi SSW 9.2 mph - N/A   Scattered Clouds
10:55 AM 78.1 °F - 66.9 °F 68% 30.14 in 10.0 mi SW 9.2 mph - N/A   Mostly Cloudy
11:15 AM 79.2 °F - 66.4 °F 65% 30.14 in 10.0 mi SSW 9.2 mph - N/A   Scattered Clouds
11:16 AM 79.2 °F - 66.6 °F 65% 30.14 in 10.0 mi SSW 9.2 mph - N/A   Scattered Clouds
11:39 AM 81.7 °F 83.6 °F 65.8 °F 58% 30.13 in 10.0 mi SW 9.2 mph - N/A   Clear
11:57 AM 82.0 °F 84.1 °F 65.8 °F 58% 30.12 in 10.0 mi SW 6.9 mph - N/A   Clear
12:15 PM 83.3 °F 85.3 °F 65.7 °F 55% 30.12 in 10.0 mi SW 12.7 mph - N/A   Clear
12:35 PM 84.0 °F 86.0 °F 65.8 °F 54% 30.12 in 10.0 mi SW 11.5 mph 17.3 mph N/A   Scattered Clouds
12:55 PM 84.2 °F 86.1 °F 65.5 °F 53% 30.12 in 10.0 mi SW 12.7 mph 18.4 mph N/A   Scattered Clouds
1:18 PM 85.3 °F 87.4 °F 65.7 °F 52% 30.11 in 10.0 mi SW 15.0 mph 23.0 mph N/A   Mostly Cloudy
1:36 PM 84.2 °F 86.1 °F 65.1 °F 53% 30.11 in 10.0 mi SW 12.7 mph - N/A   Mostly Cloudy
1:55 PM 85.5 °F 87.4 °F 65.5 °F 51% 30.10 in 10.0 mi WSW 16.1 mph 24.2 mph N/A   Scattered Clouds
2:15 PM 85.5 °F 87.4 °F 65.3 °F 51% 30.10 in 10.0 mi WSW 13.8 mph 17.3 mph N/A   Scattered Clouds
2:39 PM 85.5 °F 87.1 °F 64.8 °F 50% 30.09 in 10.0 mi WSW 17.3 mph - N/A   Scattered Clouds
2:57 PM 85.5 °F 87.1 °F 64.8 °F 50% 30.09 in 10.0 mi SSW 15.0 mph 21.9 mph N/A   Scattered Clouds
3:15 PM 82.9 °F 84.8 °F 65.3 °F 55% 30.09 in 10.0 mi WSW 15.0 mph - N/A   Mostly Cloudy
3:16 PM 82.8 °F 84.5 °F 65.3 °F 55% 30.09 in 10.0 mi WSW 17.3 mph - N/A   Overcast
3:35 PM 78.3 °F - 69.1 °F 73% 30.09 in 10.0 mi SSW 10.4 mph 17.3 mph 0.04 in Rain Light Rain
3:36 PM 78.3 °F - 69.3 °F 74% 30.09 in 10.0 mi SSW 9.2 mph 17.3 mph 0.04 in Rain Light Rain
3:55 PM 78.8 °F - 69.4 °F 73% 30.08 in 10.0 mi SSW 8.1 mph - 0.04 in   Mostly Cloudy
3:59 PM 79.0 °F - 69.3 °F 72% 30.08 in 10.0 mi SSW 6.9 mph - 0.04 in   Mostly Cloudy
4:17 PM 79.7 °F - 70.0 °F 72% 30.07 in 10.0 mi SW 5.8 mph - N/A   Mostly Cloudy
4:35 PM 79.7 °F - 69.3 °F 70% 30.07 in 10.0 mi SW 6.9 mph - N/A   Mostly Cloudy
4:55 PM 80.2 °F 83.1 °F 68.9 °F 68% 30.07 in 10.0 mi WSW 8.1 mph - N/A   Mostly Cloudy
4:56 PM 80.1 °F 82.8 °F 68.5 °F 68% 30.07 in 10.0 mi WSW 8.1 mph - N/A   Scattered Clouds
5:15 PM 79.3 °F - 68.7 °F 70% 30.07 in 10.0 mi SW 4.6 mph - N/A   Overcast
5:20 PM 79.3 °F - 68.9 °F 70% 30.07 in 10.0 mi SSW 4.6 mph - N/A   Overcast
5:38 PM 79.3 °F - 68.5 °F 69% 30.06 in 10.0 mi SSW 4.6 mph - N/A   Overcast
5:56 PM 79.5 °F - 67.8 °F 67% 30.06 in 10.0 mi SSW 6.9 mph - N/A   Mostly Cloudy
6:15 PM 79.3 °F - 66.9 °F 66% 30.05 in 10.0 mi SSW 6.9 mph - N/A   Scattered Clouds
6:16 PM 79.3 °F - 66.7 °F 65% 30.05 in 10.0 mi SSW 6.9 mph - N/A   Clear
6:35 PM 79.2 °F - 66.2 °F 64% 30.05 in 10.0 mi SSW 5.8 mph - N/A   Scattered Clouds
6:36 PM 79.2 °F - 66.2 °F 64% 30.05 in 10.0 mi SSW 5.8 mph - N/A   Scattered Clouds
6:59 PM 77.9 °F - 66.9 °F 69% 30.04 in 10.0 mi South 5.8 mph - N/A   Clear
7:17 PM 76.6 °F - 67.3 °F 73% 30.04 in 10.0 mi SSE 8.1 mph - N/A   Clear
7:35 PM 77.0 °F - 68.5 °F 75% 30.03 in 10.0 mi South 6.9 mph - N/A   Clear
7:55 PM 77.2 °F - 68.4 °F 74% 30.04 in 10.0 mi South 5.8 mph - N/A   Clear
8:15 PM 77.0 °F - 68.4 °F 75% 30.04 in 10.0 mi South 4.6 mph - N/A   Mostly Cloudy
8:20 PM 76.6 °F - 68.4 °F 75% 30.04 in 10.0 mi South 4.6 mph - N/A   Mostly Cloudy
8:56 PM 77.0 °F - 68.2 °F 74% 30.05 in 10.0 mi South 5.8 mph - N/A   Overcast
9:15 PM 76.5 °F - 68.0 °F 75% 30.05 in 10.0 mi South 4.6 mph - N/A   Overcast
9:16 PM 76.5 °F - 68.0 °F 75% 30.05 in 10.0 mi South 4.6 mph - N/A   Overcast
9:35 PM 76.1 °F - 68.0 °F 76% 30.06 in 10.0 mi South 4.6 mph - N/A   Overcast
9:59 PM 76.1 °F - 67.5 °F 74% 30.05 in 10.0 mi South 5.8 mph - N/A   Overcast
10:16 PM 76.1 °F - 66.2 °F 71% 30.05 in 10.0 mi South 6.9 mph - N/A   Overcast
10:35 PM 76.1 °F - 65.5 °F 70% 30.05 in 10.0 mi South 6.9 mph - N/A   Overcast
10:55 PM 75.6 °F - 65.5 °F 71% 30.04 in 10.0 mi South 9.2 mph - N/A   Overcast
11:19 PM 76.1 °F - 64.6 °F 67% 30.04 in 10.0 mi South 11.5 mph 17.3 mph N/A   Overcast
11:37 PM 75.9 °F - 63.7 °F 66% 30.03 in 10.0 mi SSW 12.7 mph - N/A   Mostly Cloudy
11:55 PM 75.7 °F - 63.5 °F 66% 30.03 in 10.0 mi SSW 10.4 mph - N/A   Mostly Cloudy
11:56 PM 75.7 °F - 63.5 °F 66% 30.03 in 10.0 mi SSW 9.2 mph - N/A   Mostly Cloudy